Time,TemperatureF,DewpointF,PressureIn,WindDirection,WindDirectionDegrees,WindSpeedMPH,WindSpeedGustMPH,Humidity,HourlyPrecipIn,Conditions,Clouds,dailyrainin,SoftwareType,DateUTC
2013-10-08 00:03:00,64.4,44.0,30.10,East,92,0.0,1.0,47,0.00,,,0.00,weatherlink.com 1.10,2013-10-08 05:03:00,
2013-10-08 00:18:00,64.3,42.0,30.09,East,93,0.0,1.0,45,0.00,,,0.00,weatherlink.com 1.10,2013-10-08 05:18:00,
2013-10-08 00:33:00,63.5,43.0,30.09,East,93,0.0,1.0,47,0.00,,,0.00,weatherlink.com 1.10,2013-10-08 05:33:00,
2013-10-08 00:48:00,63.5,42.0,30.09,East,94,0.0,1.0,46,0.00,,,0.00,weatherlink.com 1.10,2013-10-08 05:48:00,
2013-10-08 01:03:00,63.5,42.0,30.09,SE,145,0.0,1.0,45,0.00,,,0.00,weatherlink.com 1.10,2013-10-08 06:03:00,
2013-10-08 01:18:00,62.2,42.0,30.09,SE,145,0.0,0.0,48,0.00,,,0.00,weatherlink.com 1.10,2013-10-08 06:18:00,
2013-10-08 01:34:00,61.0,41.0,30.09,SE,145,0.0,0.0,49,0.00,,,0.00,weatherlink.com 1.10,2013-10-08 06:34:00,
2013-10-08 01:49:00,61.7,42.0,30.09,SE,145,0.0,1.0,48,0.00,,,0.00,weatherlink.com 1.10,2013-10-08 06:49:00,
2013-10-08 02:04:00,61.3,42.0,30.09,SE,145,0.0,0.0,49,0.00,,,0.00,weatherlink.com 1.10,2013-10-08 07:04:00,
2013-10-08 02:19:00,61.0,41.0,30.09,SE,144,0.0,0.0,48,0.00,,,0.00,weatherlink.com 1.10,2013-10-08 07:19:00,
2013-10-08 02:34:00,61.0,41.0,30.09,SE,145,0.0,0.0,48,0.00,,,0.00,weatherlink.com 1.10,2013-10-08 07:34:00,
2013-10-08 02:49:00,60.2,40.0,30.09,SE,145,0.0,0.0,48,0.00,,,0.00,weatherlink.com 1.10,2013-10-08 07:49:00,
2013-10-08 03:04:00,59.6,41.0,30.09,SE,145,0.0,0.0,51,0.00,,,0.00,weatherlink.com 1.10,2013-10-08 08:04:00,
2013-10-08 03:19:00,59.9,41.0,30.09,SE,145,0.0,1.0,50,0.00,,,0.00,weatherlink.com 1.10,2013-10-08 08:19:00,
2013-10-08 03:34:00,60.8,41.0,30.09,East,101,0.0,1.0,49,0.00,,,0.00,weatherlink.com 1.10,2013-10-08 08:34:00,
2013-10-08 03:49:00,59.6,42.0,30.09,East,101,0.0,0.0,52,0.00,,,0.00,weatherlink.com 1.10,2013-10-08 08:49:00,
2013-10-08 04:04:00,58.2,42.0,30.09,East,101,0.0,0.0,55,0.00,,,0.00,weatherlink.com 1.10,2013-10-08 09:04:00,
2013-10-08 04:19:00,57.9,42.0,30.09,East,101,0.0,0.0,56,0.00,,,0.00,weatherlink.com 1.10,2013-10-08 09:19:00,
2013-10-08 04:34:00,57.7,43.0,30.09,East,100,0.0,0.0,58,0.00,,,0.00,weatherlink.com 1.10,2013-10-08 09:34:00,
2013-10-08 04:49:00,57.2,54.0,30.09,SW,233,0.0,1.0,89,0.00,,,0.00,weatherlink.com 1.10,2013-10-08 09:49:00,
2013-10-08 05:04:00,54.4,52.0,30.09,SW,215,0.0,1.0,92,0.01,,,0.01,weatherlink.com 1.10,2013-10-08 10:04:00,
2013-10-08 05:19:00,51.5,50.0,30.09,SW,215,0.0,0.0,93,0.01,,,0.01,weatherlink.com 1.10,2013-10-08 10:19:00,
2013-10-08 05:34:00,51.7,50.0,30.09,East,91,0.0,1.0,94,0.01,,,0.01,weatherlink.com 1.10,2013-10-08 10:34:00,
2013-10-08 05:49:00,51.4,50.0,30.09,East,90,0.0,1.0,95,0.01,,,0.01,weatherlink.com 1.10,2013-10-08 10:49:00,
2013-10-08 06:04:00,51.1,50.0,30.09,East,90,0.0,0.0,95,0.00,,,0.01,weatherlink.com 1.10,2013-10-08 11:04:00,
2013-10-08 06:19:00,51.7,50.0,30.09,East,91,0.0,1.0,95,0.00,,,0.01,weatherlink.com 1.10,2013-10-08 11:19:00,
2013-10-08 06:34:00,51.6,50.0,30.10,East,90,0.0,0.0,95,0.00,,,0.01,weatherlink.com 1.10,2013-10-08 11:34:00,
2013-10-08 06:49:00,51.2,50.0,30.10,East,90,0.0,0.0,95,0.00,,,0.01,weatherlink.com 1.10,2013-10-08 11:49:00,
2013-10-08 07:04:00,51.0,50.0,30.10,East,90,0.0,0.0,96,0.00,,,0.01,weatherlink.com 1.10,2013-10-08 12:04:00,
2013-10-08 07:19:00,51.0,50.0,30.10,East,91,0.0,0.0,96,0.00,,,0.01,weatherlink.com 1.10,2013-10-08 12:19:00,
2013-10-08 07:34:00,51.2,50.0,30.10,East,90,0.0,0.0,96,0.00,,,0.01,weatherlink.com 1.10,2013-10-08 12:34:00,
2013-10-08 07:49:00,51.6,51.0,30.11,East,96,0.0,1.0,96,0.00,,,0.01,weatherlink.com 1.10,2013-10-08 12:49:00,
2013-10-08 08:04:00,54.2,53.0,30.11,East,97,0.0,0.0,96,0.00,,,0.01,weatherlink.com 1.10,2013-10-08 13:04:00,
2013-10-08 08:19:00,55.8,54.0,30.11,East,98,0.0,1.0,95,0.00,,,0.01,weatherlink.com 1.10,2013-10-08 13:19:00,
2013-10-08 08:34:00,56.2,54.0,30.11,East,96,0.0,0.0,93,0.00,,,0.01,weatherlink.com 1.10,2013-10-08 13:34:00,
2013-10-08 08:49:00,57.2,55.0,30.11,ESE,103,0.0,0.0,93,0.00,,,0.01,weatherlink.com 1.10,2013-10-08 13:49:00,
2013-10-08 09:04:00,58.3,56.0,30.12,SE,129,1.0,3.0,93,0.00,,,0.01,weatherlink.com 1.10,2013-10-08 14:04:00,
2013-10-08 09:19:00,60.9,55.0,30.12,ESE,118,1.0,2.0,81,0.00,,,0.01,weatherlink.com 1.10,2013-10-08 14:19:00,
2013-10-08 09:34:00,62.6,53.0,30.12,SE,138,1.0,4.0,72,0.00,,,0.01,weatherlink.com 1.10,2013-10-08 14:34:00,
2013-10-08 09:49:00,64.4,51.0,30.13,ESE,123,2.0,5.0,62,0.00,,,0.01,weatherlink.com 1.10,2013-10-08 14:49:00,
2013-10-08 10:04:00,65.6,50.0,30.12,East,91,1.0,6.0,58,0.00,,,0.01,weatherlink.com 1.10,2013-10-08 15:04:00,
2013-10-08 10:19:00,67.9,49.0,30.12,SSE,160,3.0,6.0,51,0.00,,,0.01,weatherlink.com 1.10,2013-10-08 15:19:00,
2013-10-08 10:35:00,70.0,50.0,30.12,ESE,115,2.0,7.0,49,0.00,,,0.01,weatherlink.com 1.10,2013-10-08 15:35:00,
2013-10-08 10:50:00,71.6,48.0,30.12,South,186,3.0,7.0,43,0.00,,,0.01,weatherlink.com 1.10,2013-10-08 15:50:00,
2013-10-08 11:05:00,72.0,46.0,30.12,SE,125,4.0,10.0,40,0.00,,,0.01,weatherlink.com 1.10,2013-10-08 16:05:00,
2013-10-08 11:35:00,74.3,46.0,30.11,South,170,5.0,10.0,37,0.00,,,0.01,weatherlink.com 1.10,2013-10-08 16:35:00,
2013-10-08 11:50:00,74.4,46.0,30.11,SE,131,7.0,9.0,36,0.00,,,0.01,weatherlink.com 1.10,2013-10-08 16:50:00,
2013-10-08 12:05:00,75.1,46.0,30.11,SE,136,4.0,10.0,36,0.00,,,0.01,weatherlink.com 1.10,2013-10-08 17:05:00,
2013-10-08 12:20:00,75.6,47.0,30.10,ESE,108,3.0,9.0,36,0.00,,,0.01,weatherlink.com 1.10,2013-10-08 17:20:00,
2013-10-08 12:35:00,76.2,47.0,30.09,SE,131,3.0,9.0,35,0.00,,,0.01,weatherlink.com 1.10,2013-10-08 17:35:00,
2013-10-08 13:05:00,77.2,45.0,30.08,ESE,102,3.0,8.0,32,0.00,,,0.01,weatherlink.com 1.10,2013-10-08 18:05:00,
2013-10-08 13:20:00,77.9,45.0,30.07,SE,139,3.0,8.0,31,0.00,,,0.01,weatherlink.com 1.10,2013-10-08 18:20:00,
2013-10-08 13:35:00,77.9,44.0,30.06,South,190,3.0,10.0,30,0.00,,,0.01,weatherlink.com 1.10,2013-10-08 18:35:00,
2013-10-08 13:50:00,78.3,45.0,30.05,SE,129,3.0,8.0,31,0.00,,,0.01,weatherlink.com 1.10,2013-10-08 18:50:00,
2013-10-08 14:20:00,78.8,45.0,30.04,SE,134,3.0,6.0,30,0.00,,,0.01,weatherlink.com 1.10,2013-10-08 19:20:00,
2013-10-08 14:35:00,79.3,44.0,30.04,SSE,165,3.0,8.0,29,0.00,,,0.01,weatherlink.com 1.10,2013-10-08 19:35:00,
2013-10-08 14:50:00,80.1,45.0,30.03,SE,129,8.0,8.0,29,0.00,,,0.01,weatherlink.com 1.10,2013-10-08 19:50:00,
2013-10-08 15:05:00,80.8,45.0,30.02,SW,228,1.0,8.0,28,0.00,,,0.01,weatherlink.com 1.10,2013-10-08 20:05:00,
2013-10-08 15:20:00,80.8,44.0,30.02,South,173,4.0,10.0,27,0.00,,,0.01,weatherlink.com 1.10,2013-10-08 20:20:00,
2013-10-08 15:35:00,81.0,45.0,30.02,ESE,105,3.0,7.0,28,0.00,,,0.01,weatherlink.com 1.10,2013-10-08 20:35:00,
2013-10-08 15:50:00,81.0,44.0,30.02,SE,132,0.0,8.0,27,0.00,,,0.01,weatherlink.com 1.10,2013-10-08 20:50:00,
2013-10-08 16:05:00,81.5,44.0,30.01,ESE,114,7.0,9.0,27,0.00,,,0.01,weatherlink.com 1.10,2013-10-08 21:05:00,
2013-10-08 16:20:00,81.7,44.0,30.01,SE,141,7.0,9.0,26,0.00,,,0.01,weatherlink.com 1.10,2013-10-08 21:20:00,
2013-10-08 16:36:00,81.6,43.0,30.01,SE,136,4.0,9.0,26,0.00,,,0.01,weatherlink.com 1.10,2013-10-08 21:36:00,
2013-10-08 16:51:00,81.4,44.0,30.01,East,82,3.0,8.0,27,0.00,,,0.01,weatherlink.com 1.10,2013-10-08 21:51:00,
2013-10-08 17:06:00,81.1,44.0,30.00,SSW,204,4.0,9.0,27,0.00,,,0.01,weatherlink.com 1.10,2013-10-08 22:06:00,
2013-10-08 17:21:00,81.7,44.0,30.00,SSE,163,3.0,6.0,26,0.00,,,0.01,weatherlink.com 1.10,2013-10-08 22:21:00,
2013-10-08 17:36:00,81.9,44.0,30.00,ESE,114,3.0,10.0,26,0.00,,,0.01,weatherlink.com 1.10,2013-10-08 22:36:00,
2013-10-08 17:51:00,81.0,43.0,30.00,ESE,115,2.0,12.0,26,0.00,,,0.01,weatherlink.com 1.10,2013-10-08 22:51:00,
2013-10-08 18:06:00,80.5,43.0,30.00,ESE,112,4.0,8.0,26,0.00,,,0.01,weatherlink.com 1.10,2013-10-08 23:06:00,
2013-10-08 18:21:00,80.0,44.0,30.00,ESE,110,3.0,8.0,28,0.00,,,0.01,weatherlink.com 1.10,2013-10-08 23:21:00,
2013-10-08 18:36:00,79.4,44.0,30.00,ESE,118,5.0,7.0,29,0.00,,,0.01,weatherlink.com 1.10,2013-10-08 23:36:00,
2013-10-08 18:51:00,78.2,45.0,30.00,ESE,110,2.0,5.0,31,0.00,,,0.01,weatherlink.com 1.10,2013-10-08 23:51:00,
2013-10-08 19:06:00,76.6,45.0,30.00,ESE,108,2.0,4.0,33,0.00,,,0.01,weatherlink.com 1.10,2013-10-09 00:06:00,
2013-10-08 19:21:00,75.2,46.0,30.00,ESE,115,3.0,3.0,35,0.00,,,0.01,weatherlink.com 1.10,2013-10-09 00:21:00,
2013-10-08 19:36:00,74.2,46.0,30.00,ESE,123,1.0,4.0,37,0.00,,,0.01,weatherlink.com 1.10,2013-10-09 00:36:00,
2013-10-08 19:51:00,73.3,47.0,30.00,East,86,2.0,3.0,40,0.00,,,0.01,weatherlink.com 1.10,2013-10-09 00:51:00,
2013-10-08 20:06:00,72.4,48.0,30.01,East,99,3.0,4.0,42,0.00,,,0.01,weatherlink.com 1.10,2013-10-09 01:06:00,
2013-10-08 20:21:00,71.6,49.0,30.01,ESE,105,1.0,5.0,45,0.00,,,0.01,weatherlink.com 1.10,2013-10-09 01:21:00,
2013-10-08 20:36:00,71.0,50.0,30.01,ESE,105,1.0,5.0,47,0.00,,,0.01,weatherlink.com 1.10,2013-10-09 01:36:00,
2013-10-08 20:51:00,70.4,50.0,30.01,ESE,113,2.0,5.0,48,0.00,,,0.01,weatherlink.com 1.10,2013-10-09 01:51:00,
2013-10-08 21:06:00,69.9,50.0,30.01,ESE,104,2.0,5.0,49,0.00,,,0.01,weatherlink.com 1.10,2013-10-09 02:06:00,
2013-10-08 21:21:00,69.5,49.0,30.01,ESE,112,0.0,5.0,49,0.00,,,0.01,weatherlink.com 1.10,2013-10-09 02:21:00,
2013-10-08 21:36:00,69.4,49.0,30.01,ESE,103,4.0,6.0,49,0.00,,,0.01,weatherlink.com 1.10,2013-10-09 02:36:00,
2013-10-08 21:51:00,69.3,50.0,30.01,ESE,117,3.0,7.0,50,0.00,,,0.01,weatherlink.com 1.10,2013-10-09 02:51:00,
2013-10-08 22:06:00,68.7,50.0,30.01,East,97,3.0,4.0,52,0.00,,,0.01,weatherlink.com 1.10,2013-10-09 03:06:00,
2013-10-08 22:21:00,68.5,51.0,30.01,ESE,118,3.0,5.0,53,0.00,,,0.01,weatherlink.com 1.10,2013-10-09 03:21:00,
2013-10-08 22:36:00,68.3,51.0,30.02,ESE,115,3.0,7.0,54,0.00,,,0.01,weatherlink.com 1.10,2013-10-09 03:36:00,
2013-10-08 22:51:00,67.9,51.0,30.02,SE,132,6.0,8.0,55,0.00,,,0.01,weatherlink.com 1.10,2013-10-09 03:51:00,
2013-10-08 23:06:00,67.6,51.0,30.02,SE,127,4.0,7.0,56,0.00,,,0.01,weatherlink.com 1.10,2013-10-09 04:06:00,
2013-10-08 23:21:00,67.4,51.0,30.01,ESE,114,4.0,8.0,57,0.00,,,0.01,weatherlink.com 1.10,2013-10-09 04:21:00,
2013-10-08 23:36:00,67.1,52.0,30.02,SE,141,0.0,5.0,58,0.00,,,0.01,weatherlink.com 1.10,2013-10-09 04:36:00,
2013-10-08 23:51:00,67.5,51.0,30.02,SE,132,3.0,10.0,56,0.00,,,0.01,weatherlink.com 1.10,2013-10-09 04:51:00,